This demonstration page uses our WeatherBlox Daily Observations layout. Learn more.

Left ArrowRight Arrow

31.31129, -92.44514

Hourly Observations for August 30, 2016

Temp ( °F °C ) Dew Point ( °F °C ) Humidity (%) Winds ( mph kmh ) Pressure ( in mb ) Visibility ( mi km ) Precip ( " mm )
12:53 am 00:53 Clear 73 22.8 73 22.8 100 100 NNW 3 6 29.99 1016 9 14 0.00 0.00
1:53 am 01:53 Clear 73 22.8 73 22.8 100 100 W 3 6 29.98 1015 8 13 0.00 0.00
2:53 am 02:53 Clear 72 22.2 72 22.2 100 100 Calm 29.97 1015 7 11 0.00 0.00
3:53 am 03:53 Clear 72 22.2 72 22.2 100 100 Calm 29.96 1015 7 11 0.00 0.00
4:53 am 04:53 Clear with Mist and Fog 72 22.2 72 22.2 100 100 Calm 29.96 1015 6 10 0.00 0.00
5:53 am 05:53 Clear with Mist and Fog 71 21.7 71 21.7 100 100 Calm 29.96 1015 6 10 0.00 0.00
6:53 am 06:53 Sunny with Mist and Fog 71 21.7 71 21.7 100 100 Calm 29.97 1015 4 6 0.00 0.00
7:53 am 07:53 Sunny with Mist and Fog 73 22.8 73 22.8 100 100 Calm 29.99 1016 6 10 0.00 0.00
8:53 am 08:53 Sunny 78 25.6 75 23.9 90 90 ENE 3 6 29.99 1016 9 14 0.00 0.00
9:53 am 09:53 Sunny 81 27.2 76 24.4 85 85 NE 6 9 29.99 1016 10 16 0.00 0.00
10:53 am 10:53 Sunny 88 31.1 77 25 70 70 NE 8 13 29.99 1016 10 16 0.00 0.00
11:53 am 11:53 Sunny 90 32.2 74 23.3 59 59 ENE 8 13 29.99 1016 10 16 0.00 0.00
12:53 pm 12:53 Mostly Sunny 93 33.9 74 23.3 54 54 ENE 7 11 29.97 1015 10 16 0.00 0.00
1:53 pm 13:53 Mostly Cloudy 89 31.7 72 22.2 57 57 NE 7 11 29.96 1014 10 16 0.00 0.00
2:53 pm 14:53 Mostly Sunny 94 34.4 73 22.8 51 51 NNE 8 13 29.93 1013 10 16 0.00 0.00
3:53 pm 15:53 Mostly Sunny 93 33.9 73 22.8 52 52 ENE 6 9 29.91 1013 10 16 0.00 0.00
4:39 pm 16:39 Sunny with Nearby Thunderstorms 93 33.9 73 22.8 52 52 NE 9 15 29.88 1012 10 16 0.00 0.00
4:53 pm 16:53 Partly Cloudy with Thunderstorms 93 33.9 74 23.3 54 54 NE 16 26 29.89 1012 10 16 0.00 0.00
5:07 pm 17:07 Mostly Cloudy 86 30 72 22.2 63 63 NNE 8 13 29.88 1012 10 16 0.00 0.03
5:53 pm 17:53 Sunny 89 31.7 74 23.3 61 61 N 6 9 29.88 1012 10 16 0.00 0.03
6:53 pm 18:53 Sunny 87 30.6 75 23.9 67 67 N 5 7 29.88 1012 10 16 0.00 0.00
7:53 pm 19:53 Clear 82 27.8 77 25 85 85 NNE 3 6 29.88 1012 10 16 0.00 0.00
8:53 pm 20:53 Clear 81 27.2 77 25 88 88 NNE 3 6 29.91 1013 9 14 0.00 0.00
9:53 pm 21:53 Clear 80 26.7 76 24.4 87 87 NE 3 6 29.92 1013 9 14 0.00 0.00
10:53 pm 22:53 Clear 79 26.1 76 24.4 90 90 NNE 3 6 29.92 1013 8 13 0.00 0.00
11:53 pm 23:53 Clear 79 26.1 76 24.4 90 90 Calm 29.93 1014 8 13 0.00 0.00

Powered by AerisWeather